Khon Kaen, Thailand

12:21 PM +07 on March 28, 2017 (GMT +0700)
Khon Kaen

Weather History for VTUK - November, 2013

Change the Weather History Date:

Thursday, November 7, 2013

  Actual Average Record
Temperature  
Mean Temperature 76 °F -  
Max Temperature 82 °F 87 °F - ()
Min Temperature 71 °F 66 °F - ()
Cooling Degree Days 12    
Growing Degree Days 26 (Base 50)    
Moisture  
Dew Point 71 °F    
Average Humidity 83    
Maximum Humidity 94    
Minimum Humidity 61    
Precipitation  
Precipitation 0.02 in 0.02 in - ()
Sea Level Pressure  
Sea Level Pressure 29.91 in    
Wind  
Wind Speed 6 mph ()    
Max Wind Speed 10 mph    
Max Gust Speed -    
Visibility 6.0 miles    
Events Rain    
T = Trace of Precipitation, MM = Missing Value Source: Averaged Metar Reports

Daily Weather History Graph

Daily Weather History Graph

Search for Another Location

Airport or City:

Trip Planner

Search our weather history database for the weather conditions in past years. The results will help you decide how hot, cold, wet, or windy it might be!

Date:

Astronomy

Nov. 07, 2013 Rise Set
Actual Time 6:08 AM +07 5:36 PM +07
Civil Twilight 5:45 AM +07 5:58 PM +07
Nautical Twilight 5:20 AM +07 6:24 PM +07
Astronomical Twilight 4:54 AM +07 6:50 PM +07
Moon 9:39 AM +07 (11/7) 9:19 PM +07 (11/7)
Length of Visible Light 12h 12m
Length of Day
11h 27m
Waxing Crescent, 18% of the Moon is Illuminated
Nov 7
Waxing Crescent
Nov 10
First Quarter
Nov 17
Full
Nov 26
Last Quarter
Dec 3
New

Hourly Weather History & Observations

Time (+07) Temp. Heat Index Dew Point Humidity Pressure Visibility Wind Dir Wind Speed Gust Speed Precip Events Conditions
12:00 AM 77.0 °F - 69.8 °F 78% 29.92 in 6.2 mi NNE 8.1 mph - N/A   Mostly Cloudy
1:00 AM 76 °F - 66 °F 64% 29.89 in 6 mi Calm Calm - -   Scattered Clouds
2:00 AM 75.2 °F - 68.0 °F 78% 29.89 in 6.2 mi North 6.9 mph - N/A   Partly Cloudy
5:00 AM 73.4 °F - 69.8 °F 88% 29.89 in 6.2 mi North 5.8 mph - N/A   Mostly Cloudy
6:00 AM 71.6 °F - 69.8 °F 94% 29.92 in 6.2 mi North 8.1 mph - N/A   Mostly Cloudy
7:00 AM 73 °F - 68 °F 78% 29.92 in 6 mi North 2.3 mph - - Rain Light Rain
7:00 AM 71.6 °F - 69.8 °F 94% 29.95 in 5.6 mi North 8.1 mph - N/A   Mostly Cloudy
8:00 AM 73.4 °F - 69.8 °F 88% 29.95 in 6.2 mi North 8.1 mph - N/A   Mostly Cloudy
9:00 AM 73.4 °F - 71.6 °F 94% 29.98 in 6.2 mi NNE 6.9 mph - N/A   Mostly Cloudy
10:00 AM 75.2 °F - 71.6 °F 89% 29.98 in 6.2 mi North 9.2 mph - N/A   Mostly Cloudy
11:00 AM 75.2 °F - 71.6 °F 89% 29.98 in 3.1 mi NNE 8.1 mph - N/A Rain Rain
12:00 PM 77.0 °F - 73.4 °F 89% 29.95 in 6.2 mi North 5.8 mph - N/A Rain Light Rain
1:00 PM 81 °F - 70 °F 61% 29.88 in 6 mi NNE 10.4 mph - - Rain Light Rain
1:00 PM 82.4 °F 88.2 °F 73.4 °F 74% 29.89 in 6.2 mi NNE 9.2 mph - N/A   Mostly Cloudy
2:00 PM 78.8 °F - 73.4 °F 83% 29.89 in 6.2 mi NE 9.2 mph - N/A   Mostly Cloudy
3:00 PM 80.6 °F 85.4 °F 73.4 °F 79% 29.86 in 6.2 mi North 6.9 mph - N/A   Overcast
4:00 PM 82.4 °F 88.2 °F 73.4 °F 74% 29.86 in 6.2 mi NE 9.2 mph - N/A   Overcast
5:00 PM 80.6 °F 84.6 °F 71.6 °F 74% 29.86 in 6.2 mi NNE 9.2 mph - N/A   Mostly Cloudy
6:00 PM 78.8 °F - 73.4 °F 83% 29.86 in 6.2 mi North 5.8 mph - N/A   Mostly Cloudy
7:00 PM 79 °F - 70 °F 67% 29.87 in 6 mi NNE 5.8 mph - -   Overcast
7:00 PM 77.0 °F - 73.4 °F 89% 29.89 in 6.2 mi North 5.8 mph - N/A   Mostly Cloudy
8:00 PM 77.0 °F - 73.4 °F 89% 29.92 in 6.2 mi NNE 6.9 mph - N/A   Mostly Cloudy
10:00 PM 75.2 °F - 73.4 °F 94% 29.92 in 6.2 mi NE 5.8 mph - N/A   Mostly Cloudy
11:00 PM 75.2 °F - 73.4 °F 94% 29.92 in 6.2 mi NNE 5.8 mph - N/A   Mostly Cloudy